Location: Key Biscayne
(25.6930°N, 80.1630°W)
Time: 18:51:56
(UTC-05:00)

Tiangong 2 - Visible Passes

Search period start: 19 February 2018 00:00
Search period end: 01 March 2018 00:00
Orbit: 384 x 388 km, 42.8° (Epoch: 19 February)

Date Brightness Start Highest point End Pass type
(mag) Time Alt. Az. Time Alt. Az. Time Alt. Az.
21 Feb 3.5 19:04:01 10° N 19:05:02 11° NNE 19:05:47 11° NE visible
22 Feb 2.4 19:40:12 10° NW 19:42:18 29° N 19:42:18 29° N visible
23 Feb 2.8 18:41:42 10° NNW 18:44:04 19° NNE 18:46:26 10° ENE visible
23 Feb 4.0 20:17:57 10° WNW 20:18:57 18° W 20:18:57 18° W visible
24 Feb 1.0 19:18:48 10° NW 19:21:58 88° NNE 19:23:28 28° SE visible
25 Feb 3.8 19:57:33 10° W 19:59:32 15° SW 20:00:29 14° SSW visible
26 Feb 2.7 18:57:43 10° WNW 19:00:39 35° SW 19:03:34 10° SSE visible
